This is the latest recevied weather packets stored in our database for station/object W0AKY-13. If no packets are shown the sender has not sent any weather packets the latest 10 day(s).
| Time | Temp. | Humidity | Pressure | Rain* | Wind** | Luminosity | Snow |
|---|---|---|---|---|---|---|---|
| 1787845107 | 25° C | 73% | 1022.9 hPa | 0 mm | - | 392 W/m² | - |
| 1787844803 | 24.44° C | 75% | 1022.8 hPa | 0 mm | - | 382 W/m² | - |
| 1787844501 | 24.44° C | 77% | 1022.6 hPa | 0 mm | - | 370 W/m² | - |
| 1787844197 | 23.89° C | 77% | 1022.6 hPa | 0 mm | - | 357 W/m² | - |
| 1787843896 | 23.33° C | 76% | 1022.6 hPa | 0 mm | - | 347 W/m² | - |
| 1787843591 | 23.89° C | 76% | 1022.5 hPa | 0 mm | - | 334 W/m² | - |
| 1787843287 | 23.89° C | 78% | 1022.7 hPa | 0 mm | - | 321 W/m² | - |
| 1787842983 | 24.44° C | 77% | 1022.6 hPa | 0 mm | - | 313 W/m² | - |
| 1787842682 | 23.89° C | 76% | 1022.5 hPa | 0 mm | - | 294 W/m² | - |
| 1787842377 | 23.89° C | 82% | 1022.4 hPa | 0 mm | - | 328 W/m² | - |
| 1787842072 | 22.78° C | 84% | 1022.3 hPa | 0 mm | - | 327 W/m² | - |
| 1787841768 | 21.67° C | 86% | 1022.5 hPa | 0 mm | - | 328 W/m² | - |
| 1787841463 | 21.11° C | 88% | 1022.1 hPa | 0 mm | - | 161 W/m² | - |
| 1787841162 | 20.56° C | 89% | 1022.3 hPa | 0 mm | - | 40 W/m² | - |
| 1787840858 | 20.56° C | 90% | 1022.4 hPa | 0 mm | - | 30 W/m² | - |
| 1787840553 | 20° C | 91% | 1022.3 hPa | 0 mm | - | 29 W/m² | - |
| 1787840248 | 20° C | 92% | 1022 hPa | 0 mm | - | 28 W/m² | - |
| 1787839947 | 19.44° C | 94% | 1022 hPa | 0 mm | - | 27 W/m² | - |
| 1787839643 | 19.44° C | 96% | 1022.3 hPa | 0 mm | - | 26 W/m² | - |
| 1787839342 | 18.89° C | 98% | 1022.3 hPa | 0 mm | - | 26 W/m² | - |
| 1787839042 | 18.89° C | 98% | 1022.2 hPa | 0 mm | - | 25 W/m² | - |
| 1787838741 | 18.89° C | 99% | 1022.1 hPa | 0 mm | - | 25 W/m² | - |
| 1787838441 | 18.33° C | 99% | 1022 hPa | 0 mm | - | 23 W/m² | - |
| 1787838141 | 18.33° C | 99% | 1022 hPa | 0 mm | - | 22 W/m² | - |
| 1787837835 | 18.33° C | 99% | 1022.1 hPa | 0 mm | - | 22 W/m² | - |
* Rain latest hour (hover to see other rain measurements)
** Current wind speed in m/s (hover to see current wind gust speed)